Hourly Data Report for November 03, 2017

VICTORIA UNIVERSITY CS
BRITISH COLUMBIA

48°27'25.200" N
123°18'16.600" W
60.10 m
1018598
71783
WYJ

Download Data

Hourly Data (November 2017)
Hourly Data Report for November 3, 2017
TIME
LST
Temp Definition
°C
Dew Point Definition
°C
Rel Hum Definition
%
Precip. Amount Definition
mm

Wind Dir Definition
10's deg

Wind Spd Definition
km/h
Visibility Definition
km
Stn Press Definition
kPa
Hmdx Definition


Wind Chill Definition


Weather Definition


00:00 1.1 -0.2 91 1.1 1 19   100.22     LegendNANA
01:00 1.3 -0.4 89 0.0 2 17   100.29     LegendNANA
02:00 1.6 -0.7 85 0.0 2 19   100.33     LegendNANA
03:00 1.5 -0.5 87 0.0 36 16   100.38     LegendNANA
04:00 1.8 -1.3 80 0.2 2 16   100.43     LegendNANA
05:00 2.1 -3.3 68 0.0 2 19   100.50     LegendNANA
06:00 1.5 -2.9 72 0.0 3 12   100.55     LegendNANA
07:00 1.8 -4.2 65 0.0 3 17   100.60     LegendNANA
08:00 2.0 -6.5 53 0.0 3 14   100.69     LegendNANA
09:00 2.3 -6.8 51 0.0 2 17   100.78     LegendNANA
10:00 2.6 -6.5 51 0.0 3 13   100.83     LegendNANA
11:00 3.3 -6.0 51 0.0 3 12   100.90     LegendNANA
12:00 3.6 -5.9 50 0.0 3 11   100.95     LegendNANA
13:00 3.5 -5.9 50 0.0 2 13   100.97     LegendNANA
14:00 4.0 -5.3 51 0.0 1 14   100.97     LegendNANA
15:00 3.9 -5.5 50 0.0 2 9   101.01     LegendNANA
16:00 2.8 -5.6 54 0.0 2 9   101.04     LegendNANA
17:00 2.2 -5.0 59 0.0 1 6   101.04     LegendNANA
18:00 1.2 -5.0 64 0.0 1 4   101.04     LegendNANA
19:00 1.4 -5.1 62 0.0 3 4   101.08     LegendNANA
20:00 -0.9 -4.9 74 0.0 0 1   101.10   -1 LegendNANA
21:00 -2.1 -4.1 87 0.0 28 3   101.13   -3 LegendNANA
22:00 -2.4 -3.7 91 0.0 26 3   101.15   -4 LegendNANA
23:00 -2.2 -3.2 93 0.0 31 4   101.13   -4 LegendNANA

Notes on Data Quality.

Legend

  • E = Estimated
  • M = Missing
  • NA = Not Available*
  • [empty] = Indicates an unobserved value
Date modified: